Regional Weather Roundup
Issued by NWS Cleveland, OH

Home | Current Version | Previous Version | Graphics & Text | Print | Product List | Glossary On
Versions: 1 2 3 4 5 6 7 8 9 10 11 12 13 14 15 16 17 18 19 20 21 22 23 24 25 26 27 28 29 30 31 32 33 34 35 36 37 38 39 40 41 42 43 44 45 46 47 48 49 50
000
ASUS41 KCLE 200300
RWRCLE
OHIO REGIONAL WEATHER ROUNDUP
NATIONAL WEATHER SERVICE WILMINGTON, OH
1100 PM EDT TUE AUG 19 2014

NOTE: "FAIR" INDICATES FEW OR NO CLOUDS BELOW 12,000 FEET WITH NO
SIGNIFICANT WEATHER AND/OR OBSTRUCTIONS TO VISIBILITY.

OHZ001>008-015>018-024>027-034-035-043-044-200400-
   NORTHWEST OHIO

CITY           SKY/WX    TMP DP  RH WIND       PRES   REMARKS
DEFIANCE       CLOUDY    69  65  86 S7        29.82R
FINDLAY        CLOUDY    70  66  87 S7        29.82S
TOLEDO EXPRESS CLOUDY    67  65  93 CALM      29.81R
TOLEDO METCALF CLOUDY    68  65  90 E7        29.82R
LIMA           LGT RAIN  69  67  93 CALM      29.83S FOG
$$

OHZ009>014-019>023-028>033-038-089-200400-
   NORTHEAST OHIO

CITY           SKY/WX    TMP DP  RH WIND       PRES   REMARKS
CLE-HOPKINS    CLOUDY    68  65  90 SE7       29.86F
CLE-LAKEFRONT  CLOUDY    69  66  90 S7        29.84F
CUY CO. ARPT   TSTM      68  66  94 SE12      29.86F
LORAIN-ELYRIA  CLOUDY    69  65  86 CALM      29.85F
ASHTABULA      LGT RAIN  66  64  93 SE6       29.90S
AKRON-CANTON   TSTM      68  64  87 W12G18    29.94R VSB 1
WOOSTER        NOT AVBL
MANSFIELD      MOCLDY    69  67  93 CALM      29.87S
YOUNGSTOWN     TSTM      70  63  78 NW15G24   29.91R
$$

OHZ042-051>053-060>062-070>072-077>081-200400-
  SOUTHWEST OHIO

CITY           SKY/WX    TMP DP  RH WIND       PRES   REMARKS
CINC-COVINGTON MOCLDY    76  68  76 S6        29.86S
CINC-LUNKEN    CLOUDY    75  69  81 SW3       29.85R
HAMILTON       MOCLDY    76  70  82 CALM      29.85R
DAYTON         NOT AVBL
WRIGHT-PAT AFB NOT AVBL
DAYTON GENERAL CLOUDY    77  68  73 S5        29.85S
WILMINGTON     MOCLDY    74  67  78 CALM      29.86S
$$

OHZ036-037-039>041-045>050-054>059-063>069-073>076-082>088-200400-
  CENTRAL AND SOUTHEAST OHIO

CITY           SKY/WX    TMP DP  RH WIND       PRES   REMARKS
COLUMBUS       MOCLDY    82  68  62 SW6       29.84R
OSU AIRPORT    MOCLDY    76  70  82 SW5       29.85R
BOLTON FIELD   NOT AVBL
RICKENBACK AFB NOT AVBL
NEWARK         MOCLDY    75  70  84 S3        29.84S
MARION         MOCLDY    70  64  81 SE6       29.85S
LANCASTER      CLEAR     75  68  78 S3        29.85S
ZANESVILLE     PTCLDY    75  69  81 S6        29.85S
NEW PHILLY     MOCLDY    71  69  93 SE5       29.87R
$$



USA.gov is the U.S. government's official web portal to all federal, state and local government web resources and services.